ARIANE 42P DEB *, 47108

Orbit data source: Space-Track

ARIANE 42P DEB *, 47108 is space debris in LEO originally from a launch on Mon, 10 Aug 1992 UTC launched from the French Guiana (FRGUI). Debris objects in space refer to the collection of defunct objects orbiting the Earth. Examples of debris include non-operational satellites, rocket bodies, and fragments generated from explosions, collisions, or faulty payload assembly.

Loading next visibility...
Identifier
47108, 1992-052P
Orbit
LEO
Country
Flag of FRFR
Related business
Manufacturer
ArianeGroup
Mission
Spacecraft
Bus & Motor
Unknown
Mass
Unknown
Launch date (UTC)
1992-08-10 (34 years ago)
Launch vehicle
Unknown
Launch site
French Guiana (FRGUI)
Object type
Payload
Rocket body
Debris
Shape & HBR
Unknown shape, 0.1 m
Radar Cross Section
Small (<0.1 m²)

Expand to show TLE details & history
Last TLE update: 2 days ago

TLE from 2 days ago
0 ARIANE 42P DEB *
1 47108U 92052P   26092.48681428  .00001599  00000-0  82715-3 0  9998
2 47108  65.8142 168.0053 1176334 319.0217  32.7892 12.44515467 89792
Epoch: 2026-04-02T11:41Z
TLE epoch observation values (Epoch: 2026-04-02T11:41:00.753Z)
Latitude
-0.00006°
Longitude
161.91754°
Altitude
748.796 km
Speed
7.825 km/s
True Right ascension
11h 12m 01s
True Declination
0° 00' 00"
Sunlit
Object was in full shadow at epoch
Visualization orbit readout
Latitude
Unknown
Longitude
Unknown
Altitude
Unknown
Speed
Unknown
Apparent Right ascension
Unknown
Apparent Declination
Unknown
Sunlit
N/A
Visualization observer readout
Local Sidereal Time
19:12:00
Azimuth
Unknown
Elevation
Unknown
Doppler factor
Unknown
Orbital elements
Apogee altitude
2,411.203 km
Perigee altitude
561.008 km
Semi-major axis
7,864.242 km
Eccentricity
0.11763
Inclination
65.8142°
RAAN
168.0053°
Arg. of periapsis
319.0217°
True anomaly
41.08258°
Mean anomaly
32.7892°
Eccentric anomaly
36.82932°
Mean motion
3.11213 °/min
Orbital period
115.68 mins
BSTAR
0.00082715
Loading maneuver chart data...
Computing Atmospheric mass density...
Loading historical data...
Loading historical data...
Loading historical data...
Loading historical data...
Loading historical data...
Loading historical data...
Loading historical data...

Documentation

Showing up to 5 results
|